Weather in Arshan

Russia / Republic of Buryatia     51°54′41″N   102°26′07″E
temp.,
°C
wind,
m/s
gust,
m/s
humid.,
%
clouds,
%
prec.,
mm/h
press.,
hPa
HPBL,
m
26 february, fri
fri2623:00−8wsw2265100 0.0 101123
02:00−15n5694100 0.1 1015231
05:00−16nnw4491100 0.1 101769
08:00−17n2294100 0.1 101927
11:00−15nne3490100 0.4 1017498
14:00−16nne3484100 0.8 1016718
17:00−17n4487100 0.2 1017768
20:00−22n3397100 0.4 102455
27 february, sat
sat2723:00−27nnw229379 0.0 102920
02:00−26wnw119379 0.0 103220
05:00−27wnw128579 0.1 103520
08:00−29nnw226739 0.1 103819
11:00−23se228128 0.0 1038325
14:00−19ssw246834 0.0 1035995
17:00−19s116487 0.0 1034583
20:00−26nw118593 0.0 103720
28 february, sun
sun2823:00−27wsw227143 0.0 103920
02:00−27wsw226931 0.0 104021
05:00−27sw226166 0.0 104020
08:00−27sw225980 0.0 104121
11:00−20s226493 0.0 1039196
14:00−17s226464 0.0 1036813
17:00−16ssw0265100 0.0 1035760
20:00−23wsw117985 0.0 103820
1 march, mon
mon123:00−24sw226915 0.0 103923
02:00−25sw226622 0.0 103823
05:00−25sw225936 0.0 103723
08:00−25sw225827 0.0 103623
11:00−18ssw336645 0.0 1032176
14:00−14s337155 0.0 1027354
17:00−13s348050 0.0 1024251
20:00−18ssw228246 0.0 102441
2 march, tue
tue223:00−17ssw3377100 0.0 102142
02:00−16ssw3374100 0.0 101934
05:00−15sw2270100 0.0 101826
08:00−14ssw2270100 0.0 101822
11:00−9s2272100 0.0 1014190
14:00−5s256882 0.0 10121015
17:00−6sse1285100 0.2 1010201
20:00−10sw2277100 0.3 101221